Change the Weather History Date:

Monday, January 6, 2014

  Actual Average (PADQ) Record (PADQ)
Temperature  
Mean Temperature 34 °F 31 °F  
Max Temperature 36 °F 35 °F 52 °F (2005)
Min Temperature 32 °F 26 °F 8 °F (1998)
Degree Days  
Heating Degree Days 31 34  
Month to date heating degree days 204  
Since 1 July heating degree days 4045  
Cooling Degree Days 0    
Month to date cooling degree days  
Year to date cooling degree days  
Moisture  
Dew Point 32 °F    
Average Humidity 91    
Maximum Humidity 96    
Minimum Humidity 79    
Precipitation  
Precipitation 0.15 in 0.28 in 1.51 in (2010)
Month to date precipitation 1.70  
Year to date precipitation 1.70  
Snow  
Snow 0.00 in 0.40 in 4.10 in (2012)
Month to date snowfall 2.2  
Since 1 July snowfall 23.5  
Snow Depth -    
Sea Level Pressure  
Sea Level Pressure 29.45 in    
Wind  
Wind Speed 20 mph (SE)    
Max Wind Speed 30 mph    
Max Gust Speed 38 mph    
Visibility 7 miles    
Events      
T = Trace of Precipitation, MM = Missing Value Source: NWS Daily Summary

Daily Weather History Graph

Daily Weather History Graph

Search for Another Location

Airport or City:

Trip Planner

Search our weather history database for the weather conditions in past years. The results will help you decide how hot, cold, wet, or windy it might be!

Date:

Astronomy

Jan. 06, 2014 Rise Set
Actual Time 10:25 AM AKST 4:45 PM AKST
Civil Twilight 9:30 AM AKST 5:39 PM AKST
Nautical Twilight 8:35 AM AKST 6:34 PM AKST
Astronomical Twilight 7:45 AM AKST 7:25 PM AKST
Moon 12:02 PM AKST (1/6) 12:00 AM AKST (1/6)
Length of Visible Light 8h 09m
Length of Day
6h 20m
Waxing Crescent, 36% of the Moon is Illuminated
Jan 6
Waxing Crescent
Jan 7
First Quarter
Jan 15
Full
Jan 23
Last Quarter
Jan 30
New

Hourly Weather History & Observations

Time (AKST) Temp. Windchill Dew Point Humidity Pressure Visibility Wind Dir Wind Speed Gust Speed Precip Events Conditions
12:11 AM 35.6 °F 24.0 °F 33.8 °F 93% 29.41 in 4.0 mi ESE 23.0 mph 26.5 mph 0.01 in   Overcast
12:56 AM 36.0 °F 23.7 °F 32.9 °F 89% 29.39 in 5.0 mi SE 26.5 mph 32.2 mph 0.03 in   Overcast
1:10 AM 35.6 °F 23.4 °F 33.8 °F 93% 29.41 in 4.0 mi ESE 25.3 mph 34.5 mph 0.01 in   Mostly Cloudy
1:27 AM 35.6 °F 23.7 °F 33.8 °F 93% 29.41 in 4.0 mi SE 24.2 mph 31.1 mph 0.02 in   Overcast
1:34 AM 35.6 °F 23.4 °F 33.8 °F 93% 29.41 in 4.0 mi ESE 25.3 mph 32.2 mph 0.02 in   Mostly Cloudy
1:56 AM 36.0 °F 23.9 °F 32.9 °F 89% 29.38 in 4.0 mi ESE 25.3 mph 31.1 mph 0.02 in   Mostly Cloudy
2:15 AM 35.6 °F 23.7 °F 33.8 °F 93% 29.41 in 2.5 mi ESE 24.2 mph 31.1 mph 0.01 in   Overcast
2:29 AM 35.6 °F 24.2 °F 33.8 °F 93% 29.41 in 3.0 mi SE 21.9 mph - 0.03 in   Overcast
2:56 AM 35.6 °F 23.4 °F 33.8 °F 93% 29.41 in 6.0 mi ESE 25.3 mph 33.4 mph N/A   Overcast
3:21 AM 35.6 °F 23.0 °F 33.8 °F 93% 29.41 in 4.0 mi SE 27.6 mph 35.7 mph N/A   Overcast
3:56 AM 34.9 °F 22.5 °F 32.9 °F 92% 29.40 in 4.0 mi SE 25.3 mph 36.8 mph 0.02 in   Overcast
4:12 AM 35.6 °F 24.2 °F 32.0 °F 87% 29.44 in 3.0 mi SE 21.9 mph 31.1 mph 0.02 in   Overcast
4:35 AM 33.8 °F 22.5 °F 32.0 °F 93% 29.44 in 3.0 mi SE 19.6 mph - 0.05 in   Overcast
4:49 AM 33.8 °F 23.2 °F 32.0 °F 93% 29.45 in 2.5 mi SSE 17.3 mph - 0.07 in   Overcast
4:56 AM 32.9 °F 22.8 °F 32.0 °F 96% 29.42 in 3.0 mi SSE 15.0 mph - 0.07 in   Overcast
5:06 AM 33.8 °F 25.3 °F 32.0 °F 93% 29.45 in 4.0 mi SSE 11.5 mph - 0.01 in   Overcast
5:33 AM 32.0 °F 21.2 °F 30.2 °F 93% 29.46 in 4.0 mi SSE 16.1 mph - 0.02 in   Overcast
5:56 AM 32.0 °F 22.1 °F 30.2 °F 93% 29.47 in 10.0 mi SSE 13.8 mph - N/A   Overcast
6:25 AM 33.8 °F 25.3 °F 32.0 °F 93% 29.48 in 10.0 mi SSE 11.5 mph - N/A   Mostly Cloudy
6:45 AM 33.8 °F 24.8 °F 32.0 °F 93% 29.48 in 10.0 mi SSE 12.7 mph - N/A   Mostly Cloudy
6:56 AM 32.9 °F 23.7 °F 32.0 °F 96% 29.46 in 10.0 mi SSE 12.7 mph - N/A   Overcast
7:36 AM 33.8 °F 24.3 °F 32.0 °F 93% 29.49 in 10.0 mi SSE 13.8 mph - N/A   Overcast
7:56 AM 34.0 °F 23.4 °F 32.0 °F 92% 29.47 in 4.0 mi SSE 17.3 mph - N/A   Overcast
8:56 AM 33.8 °F 23.9 °F 32.0 °F 93% 29.51 in 5.0 mi SSE 15.0 mph - N/A   Overcast
9:56 AM 34.0 °F 26.0 °F 32.0 °F 92% 29.49 in 10.0 mi SE 10.4 mph - 0.01 in   Overcast
10:47 AM 35.6 °F 27.1 °F 32.0 °F 87% 29.53 in 10.0 mi SSE 12.7 mph - N/A   Overcast
10:56 AM 34.0 °F 25.5 °F 32.0 °F 92% 29.50 in 10.0 mi SE 11.5 mph - N/A   Overcast
11:03 AM 33.8 °F 25.3 °F 32.0 °F 93% 29.53 in 10.0 mi SE 11.5 mph - N/A   Overcast
11:56 AM 32.9 °F 24.7 °F 32.0 °F 96% 29.50 in 10.0 mi ESE 10.4 mph - N/A   Clear
12:56 PM 32.9 °F 25.3 °F 31.1 °F 93% 29.50 in 10.0 mi East 9.2 mph - N/A   Clear
1:56 PM 32.0 °F 24.8 °F 31.1 °F 96% 29.49 in 10.0 mi East 8.1 mph - N/A   Clear
2:56 PM 33.8 °F 25.8 °F 32.0 °F 93% 29.51 in 10.0 mi East 10.4 mph - N/A   Scattered Clouds
3:56 PM 34.0 °F 26.0 °F 32.0 °F 92% 29.48 in 10.0 mi East 10.4 mph - N/A   Clear
4:56 PM 34.0 °F 23.4 °F 31.1 °F 89% 29.47 in 10.0 mi East 17.3 mph - N/A   Mostly Cloudy
5:56 PM 34.9 °F 24.6 °F 32.0 °F 89% 29.45 in 10.0 mi East 17.3 mph - N/A   Clear
6:56 PM 34.9 °F 23.9 °F 31.1 °F 86% 29.43 in 10.0 mi ESE 19.6 mph - N/A   Partly Cloudy
7:56 PM 36.0 °F 24.7 °F 31.1 °F 82% 29.40 in 10.0 mi East 21.9 mph 29.9 mph N/A   Clear
8:56 PM 35.6 °F 26.2 °F 30.2 °F 81% 29.44 in 10.0 mi ESE 15.0 mph - N/A   Partly Cloudy
9:56 PM 36.0 °F 23.2 °F 30.0 °F 79% 29.40 in 10.0 mi ESE 28.8 mph 34.5 mph N/A   Clear
10:56 PM 36.0 °F 23.0 °F 31.1 °F 82% 29.40 in 10.0 mi ESE 29.9 mph 38.0 mph N/A   Scattered Clouds
11:56 PM 35.6 °F 23.2 °F 32.0 °F 87% 29.41 in 10.0 mi ESE 26.5 mph 36.8 mph N/A   Mostly Cloudy